This is the latest recevied weather packets stored in our database for station/object IV3CLI-10. If no packets are shown the sender has not sent any weather packets the latest 10 day(s).
| Time | Temp. | Humidity | Pressure | Rain* | Wind** | Luminosity | Snow |
|---|---|---|---|---|---|---|---|
| 1777636487 | 23.33° C | 30% | 1026 hPa | - | - | - | - |
| 1777635587 | 21.67° C | 29% | 1026.3 hPa | - | - | - | - |
| 1777630203 | 21.67° C | 25% | 1027.2 hPa | - | - | - | - |
| 1777629302 | 21.67° C | 26% | 1027.2 hPa | - | - | - | - |
| 1777628402 | 23.89° C | 25% | 1027.4 hPa | - | - | - | - |
| 1777626602 | 22.78° C | 27% | 1027.6 hPa | - | - | - | - |
| 1777623902 | 20.56° C | 32% | 1027.8 hPa | - | - | - | - |
| 1777623002 | 19.44° C | 40% | 1027.9 hPa | - | - | - | - |
| 1777622102 | 17.78° C | 51% | 1028 hPa | - | - | - | - |
| 1777621202 | 16.67° C | 53% | 1028 hPa | - | - | - | - |
| 1777620302 | 16.67° C | 51% | 1028 hPa | - | - | - | - |
| 1777618501 | 17.78° C | 58% | 1028 hPa | - | - | - | - |
| 1777617601 | 15.56° C | 67% | 1027.9 hPa | - | - | - | - |
| 1777616695 | 14.44° C | 77% | 1027.9 hPa | - | - | - | - |
| 1777615795 | 13.33° C | 89% | 1027.8 hPa | - | - | - | - |
| 1777614895 | 11.67° C | 100% | 1027.8 hPa | - | - | - | - |
| 1777613995 | 10.56° C | 100% | 1027.7 hPa | - | - | - | - |
| 1777613095 | 10.56° C | 100% | 1027.5 hPa | - | - | - | - |
| 1777612195 | 9.44° C | 100% | 1027.6 hPa | - | - | - | - |
| 1777610395 | 6.67° C | 100% | 1027.5 hPa | - | - | - | - |
| 1777609495 | 6.11° C | 100% | 1027.4 hPa | - | - | - | - |
| 1777608595 | 6.11° C | 100% | 1027.2 hPa | - | - | - | - |
| 1777606795 | 6.11° C | 100% | 1027.1 hPa | - | - | - | - |
| 1777605895 | 6.11° C | 100% | 1027.2 hPa | - | - | - | - |
| 1777604995 | 6.11° C | 100% | 1027.2 hPa | - | - | - | - |
* Rain since midnight (hover to see other rain measurements)
** Current wind speed in m/s (hover to see current wind gust speed)